Satellite-Ground Cal/Val Site Overpasses Predictions

Prediction of Satellite NPP Overpassing Cal/Val Site: Antarctic Dome C

Ground Cal/Val Site Location: Latitude: -75.10, Longitude: 123.35; Satellite-Ground Site NADIR distance within 100 km.

Table of predicted overpasses for the next 14.0 days since TLE Epoch: 2/27/2021
Interval Starting Time Ending Time Minimum Distance Time Minimum Distance (km)
1 02/27/2021 07:37:19 02/27/2021 07:37:46 02/27/2021 07:37:33 35.81
2 02/28/2021 07:18:33 02/28/2021 07:18:52 02/28/2021 07:18:42 74.30
3 03/02/2021 15:00:47 03/02/2021 15:01:11 03/02/2021 15:00:59 58.09
4 03/03/2021 14:41:57 03/03/2021 14:42:22 03/03/2021 14:42:10 51.13
5 03/04/2021 07:43:37 03/04/2021 07:43:58 03/04/2021 07:43:47 71.00
6 03/05/2021 07:24:45 03/05/2021 07:25:12 03/05/2021 07:24:58 37.10
7 03/07/2021 15:07:11 03/07/2021 15:07:19 03/07/2021 15:07:15 95.75
8 03/08/2021 14:48:10 03/08/2021 14:48:39 03/08/2021 14:48:24 15.61
